This is the latest recevied weather packets stored in our database for station/object K8GLX. If no packets are shown the sender has not sent any weather packets the latest 10 day(s).
| Time | Temp. | Humidity | Pressure | Rain* | Wind** | Luminosity | Snow |
|---|---|---|---|---|---|---|---|
| 1777982829 | 18.33° C | 62% | 1004.4 hPa | 0 mm | - | 55 W/m² | - |
| 1777982663 | 18.33° C | 61% | 1004 hPa | 0 mm | - | 55 W/m² | - |
| 1777982229 | 18.33° C | 61% | 1004 hPa | 0 mm | - | 54 W/m² | - |
| 1777981935 | 18.33° C | 60% | 1004.2 hPa | 0 mm | - | 57 W/m² | - |
| 1777981629 | 18.33° C | 60% | 1004.3 hPa | 0 mm | - | 51 W/m² | - |
| 1777981463 | 18.33° C | 60% | 1004.2 hPa | 0 mm | - | 47 W/m² | - |
| 1777981029 | 18.33° C | 60% | 1003.9 hPa | 0 mm | - | 24 W/m² | - |
| 1777980735 | 18.89° C | 59% | 1004.1 hPa | 0 mm | - | 17 W/m² | - |
| 1777980429 | 18.89° C | 60% | 1004.3 hPa | 0 mm | - | 32 W/m² | - |
| 1777980135 | 18.89° C | 59% | 1004 hPa | 0 mm | - | 42 W/m² | - |
| 1777979829 | 18.89° C | 60% | 1004.2 hPa | 0 mm | - | 44 W/m² | - |
| 1777979535 | 18.89° C | 59% | 1003.9 hPa | 0 mm | - | 39 W/m² | - |
| 1777979229 | 18.89° C | 60% | 1004.2 hPa | 0 mm | - | 33 W/m² | - |
| 1777979060 | 18.89° C | 59% | 1003.8 hPa | 0 mm | - | 27 W/m² | - |
| 1777978629 | 18.89° C | 59% | 1003.9 hPa | 0 mm | - | 20 W/m² | - |
| 1777978335 | 18.89° C | 60% | 1003.8 hPa | 0 mm | - | 13 W/m² | - |
| 1777978029 | 18.89° C | 61% | 1003.6 hPa | 0 mm | - | 10 W/m² | - |
| 1777977735 | 18.89° C | 60% | 1003.7 hPa | 0 mm | - | 6 W/m² | - |
| 1777977432 | 19.44° C | 60% | 1003.3 hPa | 0 mm | - | 5 W/m² | - |
| 1777977260 | 19.44° C | 60% | 1003.4 hPa | 0 mm | - | 5 W/m² | - |
| 1777976828 | 19.44° C | 60% | 1003.4 hPa | 0 mm | - | 3 W/m² | - |
| 1777976660 | 19.44° C | 60% | 1003.5 hPa | 0 mm | - | 2 W/m² | - |
| 1777976229 | 19.44° C | 59% | 1003.4 hPa | 0 mm | - | 0 W/m² | - |
| 1777975934 | 19.44° C | 60% | 1003.3 hPa | 0 mm | - | 0 W/m² | - |
| 1777975630 | 19.44° C | 60% | 1003.2 hPa | 0 mm | - | 0 W/m² | - |
* Rain latest hour (hover to see other rain measurements)
** Current wind speed in m/s (hover to see current wind gust speed)